EN

Hourly Weather Altburg

Today, 25 January, Monday

Time Temperature Precipitation Wind Pressure Humidity
00:00 -7°C° 0 mm 2 mps 692 mmHg 76%
01:00 -6°C° 0 mm 1 mps 692 mmHg 74%
02:00 -4°C° 0.2 mm 1 mps 692 mmHg 75%
03:00 -4°C° 0.2 mm 1 mps 691 mmHg 77%
04:00 -3°C° 0.2 mm 1 mps 691 mmHg 79%
05:00 -5°C° 0.4 mm 2 mps 691 mmHg 83%
06:00 -5°C° 0.4 mm 2 mps 691 mmHg 88%
07:00 -5°C° 0 mm 2 mps 691 mmHg 92%
08:00 -4°C° 0.5 mm 2 mps 692 mmHg 91%
09:00 -4°C° 0.5 mm 3 mps 693 mmHg 90%
10:00 -2°C° 0.5 mm 3 mps 693 mmHg 89%
11:00 -2°C° 0.2 mm 3 mps 693 mmHg 87%
12:00 -2°C° 0.2 mm 4 mps 693 mmHg 85%
13:00 -2°C° 0.2 mm 4 mps 694 mmHg 83%
14:00 -2°C° 0.2 mm 4 mps 694 mmHg 85%
15:00 -1°C° 0.2 mm 3 mps 694 mmHg 86%
16:00 -2°C° 0.2 mm 2 mps 695 mmHg 88%
17:00 -2°C° 0.3 mm 2 mps 696 mmHg 90%
18:00 -3°C° 0.3 mm 2 mps 696 mmHg 93%
19:00 -4°C° 0.3 mm 2 mps 697 mmHg 95%
20:00 -4°C° 0.8 mm 2 mps 698 mmHg 96%
21:00 -4°C° 0.8 mm 2 mps 699 mmHg 96%
22:00 -4°C° 0.8 mm 2 mps 700 mmHg 97%
23:00 -4°C° 0.5 mm 2 mps 700 mmHg 97%

Tomorrow, 26 January, Tuesday

Time Temperature Precipitation Wind Pressure Humidity
00:00 -4°C° 0.5 mm 2 mps 701 mmHg 96%
01:00 -4°C° 0.5 mm 2 mps 701 mmHg 96%
02:00 -4°C° 0.3 mm 2 mps 702 mmHg 95%
03:00 -4°C° 0.3 mm 2 mps 702 mmHg 95%
04:00 -5°C° 0.3 mm 3 mps 703 mmHg 95%
05:00 -6°C° 0.2 mm 3 mps 703 mmHg 94%
06:00 -6°C° 0.2 mm 3 mps 704 mmHg 94%
07:00 -6°C° 0.2 mm 3 mps 705 mmHg 94%
08:00 -6°C° 0 mm 3 mps 705 mmHg 92%
09:00 -5°C° 0 mm 3 mps 705 mmHg 90%
10:00 -5°C° 0 mm 4 mps 705 mmHg 88%
11:00 -4°C° 0 mm 4 mps 705 mmHg 86%
12:00 -4°C° 0 mm 4 mps 706 mmHg 84%
13:00 -4°C° 0 mm 5 mps 706 mmHg 82%
14:00 -3°C° 0.1 mm 4 mps 706 mmHg 83%
15:00 -3°C° 0.1 mm 4 mps 706 mmHg 85%
16:00 -2°C° 0.1 mm 3 mps 706 mmHg 86%
17:00 -4°C° 0.1 mm 3 mps 706 mmHg 87%
18:00 -4°C° 0.1 mm 3 mps 707 mmHg 89%
19:00 -4°C° 0.1 mm 2 mps 707 mmHg 90%
20:00 -4°C° 0.1 mm 2 mps 708 mmHg 90%
21:00 -5°C° 0.1 mm 2 mps 708 mmHg 90%
22:00 -3°C° 0.1 mm 1 mps 708 mmHg 90%
23:00 -6°C° 0 mm 2 mps 708 mmHg 89%

Day after tomorrow, 27 January, Wednesday

Time Temperature Precipitation Wind Pressure Humidity
00:00 -7°C° 0 mm 2 mps 708 mmHg 87%
01:00 -7°C° 0 mm 2 mps 708 mmHg 86%
02:00 -7°C° 0 mm 2 mps 707 mmHg 85%
03:00 -8°C° 0 mm 2 mps 707 mmHg 84%
04:00 -7°C° 0 mm 1 mps 706 mmHg 83%
05:00 -6°C° 0 mm 1 mps 706 mmHg 83%
06:00 -6°C° 0 mm 1 mps 706 mmHg 82%
07:00 -4°C° 0 mm 1 mps 706 mmHg 82%
08:00 -3°C° 0 mm 1 mps 706 mmHg 82%
09:00 -3°C° 0 mm 1 mps 706 mmHg 81%
10:00 -2°C° 0 mm 1 mps 706 mmHg 81%
11:00 -1°C° 0 mm 1 mps 706 mmHg 82%
12:00 0°C° 0 mm 1 mps 705 mmHg 83%
13:00 +1°C° 0 mm 1 mps 705 mmHg 84%
14:00 +1°C° 0.1 mm 1 mps 705 mmHg 86%
15:00 +1°C° 0.1 mm 1 mps 704 mmHg 88%
16:00 -1°C° 0.1 mm 2 mps 704 mmHg 89%
17:00 -1°C° 0.5 mm 2 mps 704 mmHg 92%
18:00 -1°C° 0.5 mm 2 mps 704 mmHg 94%
19:00 -2°C° 0.5 mm 2 mps 704 mmHg 97%
20:00 -1°C° 1.1 mm 2 mps 704 mmHg 97%
21:00 -1°C° 1.1 mm 2 mps 704 mmHg 98%
22:00 -1°C° 1.1 mm 2 mps 704 mmHg 98%
23:00 +1°C° 1 mm 2 mps 704 mmHg 98%

28 January, Thursday

Time Temperature Precipitation Wind Pressure Humidity
00:00 +1°C° 1 mm 2 mps 704 mmHg 98%
01:00 +1°C° 1 mm 2 mps 704 mmHg 98%
02:00 +1°C° 1.1 mm 2 mps 703 mmHg 98%
03:00 +2°C° 1.1 mm 2 mps 703 mmHg 98%
04:00 +2°C° 1.1 mm 2 mps 702 mmHg 98%
05:00 +2°C° 1.3 mm 2 mps 702 mmHg 98%
06:00 +1°C° 1.3 mm 3 mps 701 mmHg 98%
07:00 +1°C° 1.3 mm 3 mps 700 mmHg 98%
08:00 +1°C° 2.1 mm 3 mps 700 mmHg 98%
09:00 +2°C° 2.1 mm 3 mps 700 mmHg 98%
10:00 +2°C° 2.1 mm 3 mps 699 mmHg 98%
11:00 +2°C° 2.2 mm 3 mps 699 mmHg 98%
12:00 +2°C° 2.2 mm 3 mps 699 mmHg 98%
13:00 +3°C° 2.2 mm 4 mps 699 mmHg 98%
14:00 +3°C° 1.2 mm 4 mps 699 mmHg 98%
15:00 +3°C° 1.2 mm 4 mps 699 mmHg 98%
16:00 +3°C° 1.2 mm 4 mps 699 mmHg 97%
17:00 +3°C° 1.1 mm 4 mps 699 mmHg 97%
18:00 +4°C° 1.1 mm 4 mps 700 mmHg 97%
19:00 +4°C° 1.1 mm 4 mps 701 mmHg 97%
20:00 +4°C° 0.6 mm 4 mps 701 mmHg 97%
21:00 +4°C° 0.6 mm 4 mps 701 mmHg 97%
22:00 +4°C° 0.6 mm 4 mps 701 mmHg 96%
23:00 +4°C° 0.3 mm 4 mps 701 mmHg 96%

29 January, Friday

Time Temperature Precipitation Wind Pressure Humidity
00:00 +4°C° 0.3 mm 4 mps 701 mmHg 95%
01:00 +4°C° 0.3 mm 4 mps 701 mmHg 95%
02:00 +3°C° 0 mm 3 mps 701 mmHg 93%
03:00 +3°C° 0 mm 3 mps 700 mmHg 92%
04:00 +3°C° 0 mm 3 mps 699 mmHg 90%
05:00 +3°C° 0.3 mm 3 mps 699 mmHg 91%
06:00 +3°C° 0.3 mm 3 mps 698 mmHg 92%
07:00 +3°C° 0.3 mm 4 mps 698 mmHg 92%
08:00 +4°C° 1.4 mm 4 mps 697 mmHg 94%
09:00 +4°C° 1.4 mm 4 mps 697 mmHg 95%
10:00 +4°C° 1.4 mm 4 mps 697 mmHg 96%
11:00 +4°C° 1.6 mm 4 mps 697 mmHg 96%
12:00 +4°C° 1.6 mm 4 mps 697 mmHg 96%
13:00 +4°C° 1.6 mm 4 mps 697 mmHg 96%
14:00 +4°C° 1.6 mm 4 mps 696 mmHg 96%
15:00 +4°C° 1.6 mm 3 mps 696 mmHg 97%
16:00 +4°C° 1.6 mm 3 mps 696 mmHg 97%
17:00 +4°C° 0.8 mm 3 mps 696 mmHg 96%
18:00 +5°C° 0.8 mm 3 mps 695 mmHg 95%
19:00 +5°C° 0.8 mm 3 mps 695 mmHg 94%
20:00 +5°C° 1.4 mm 3 mps 695 mmHg 95%
21:00 +5°C° 1.4 mm 3 mps 694 mmHg 96%
22:00 +4°C° 1.4 mm 3 mps 693 mmHg 96%
23:00 +4°C° 1.1 mm 3 mps 693 mmHg 95%

30 January, Saturday

Time Temperature Precipitation Wind Pressure Humidity
00:00 +4°C° 1.1 mm 3 mps 692 mmHg 94%
01:00 +5°C° 1.1 mm 3 mps 691 mmHg 93%
02:00 +4°C° 0 mm 3 mps 691 mmHg 92%
03:00 +4°C° 0 mm 4 mps 690 mmHg 91%
04:00 +4°C° 0 mm 4 mps 689 mmHg 90%
05:00 +2°C° 0.5 mm 6 mps 690 mmHg 91%
06:00 +1°C° 0.5 mm 8 mps 691 mmHg 91%
07:00 0°C° 0.5 mm 10 mps 691 mmHg 92%
08:00 0°C° 1.5 mm 8 mps 693 mmHg 94%
09:00 +1°C° 1.5 mm 5 mps 694 mmHg 96%
10:00 +1°C° 1.5 mm 3 mps 695 mmHg 98%
11:00 +2°C° 0.8 mm 3 mps 695 mmHg 97%
12:00 +2°C° 0.8 mm 3 mps 695 mmHg 97%
13:00 +2°C° 0.8 mm 3 mps 695 mmHg 96%
14:00 +2°C° 0.9 mm 3 mps 696 mmHg 97%
15:00 +2°C° 0.9 mm 3 mps 696 mmHg 97%
16:00 +1°C° 0.9 mm 3 mps 696 mmHg 97%
17:00 +1°C° 1.2 mm 3 mps 697 mmHg 97%
18:00 0°C° 1.2 mm 3 mps 698 mmHg 97%
19:00 +1°C° 1.2 mm 2 mps 699 mmHg 98%
20:00 -1°C° 0.7 mm 2 mps 700 mmHg 97%
21:00 -1°C° 0.7 mm 2 mps 701 mmHg 96%
22:00 0°C° 0.7 mm 1 mps 701 mmHg 96%
23:00 -1°C° 0.1 mm 1 mps 701 mmHg 95%
Show more